TimeGMT,TemperatureF,Dew PointF,Humidity,Sea Level PressureIn,VisibilityMPH,Wind Direction,Wind SpeedMPH,Gust SpeedMPH,PrecipitationIn,Events,Conditions,WindDirDegrees,DateUTC
6:50 AM,33.8,30.2,87,30.12,-9999.0,Calm,Calm,-,N/A,,Clear,0,2012-11-06 06:50:00
7:20 AM,33.8,32.0,93,30.12,-9999.0,Calm,Calm,-,N/A,,Clear,0,2012-11-06 07:20:00
7:50 AM,35.6,32.0,87,30.15,-9999.0,Calm,Calm,-,N/A,,Clear,0,2012-11-06 07:50:00
8:20 AM,35.6,33.8,93,30.15,-9999.0,Calm,Calm,-,N/A,,Clear,0,2012-11-06 08:20:00
8:50 AM,37.4,35.6,93,30.15,-9999.0,SW,4.6,-,N/A,,Clear,230,2012-11-06 08:50:00
9:50 AM,44.6,39.2,81,30.15,-9999.0,SW,6.9,-,N/A,,Clear,220,2012-11-06 09:50:00
10:20 AM,46.4,41.0,81,30.15,6.2,SW,8.1,-,N/A,,Partly Cloudy,230,2012-11-06 10:20:00
10:50 AM,48.2,41.0,76,30.15,6.2,SW,9.2,-,N/A,,Partly Cloudy,220,2012-11-06 10:50:00
11:20 AM,48.2,41.0,76,30.15,6.2,SW,10.4,-,N/A,,Partly Cloudy,220,2012-11-06 11:20:00
11:50 AM,50.0,41.0,71,30.15,6.2,SW,10.4,-,N/A,,Partly Cloudy,230,2012-11-06 11:50:00
12:20 PM,50.0,41.0,71,30.15,6.2,WSW,9.2,-,N/A,,Scattered Clouds,240,2012-11-06 12:20:00
12:50 PM,50.0,42.8,76,30.15,6.2,WSW,8.1,-,N/A,,Mostly Cloudy,240,2012-11-06 12:50:00
1:20 PM,50.0,42.8,76,30.15,6.2,SW,8.1,-,N/A,Rain,Light Rain,220,2012-11-06 13:20:00
1:50 PM,50.0,44.6,82,30.15,6.2,SW,6.9,-,N/A,Rain,Light Rain,230,2012-11-06 13:50:00
2:20 PM,50.0,44.6,82,30.15,6.2,SW,6.9,-,N/A,Rain,Light Rain,230,2012-11-06 14:20:00
2:50 PM,50.0,44.6,82,30.15,6.2,WSW,5.8,-,N/A,,Mostly Cloudy,240,2012-11-06 14:50:00
3:20 PM,50.0,44.6,82,30.15,6.2,SW,5.8,-,N/A,,Mostly Cloudy,230,2012-11-06 15:20:00
3:50 PM,50.0,44.6,82,30.15,6.2,WSW,4.6,-,N/A,Rain,Light Rain,240,2012-11-06 15:50:00
4:20 PM,50.0,44.6,82,30.15,6.2,WSW,4.6,-,N/A,Rain,Light Rain,240,2012-11-06 16:20:00
4:50 PM,48.2,44.6,87,30.15,6.2,SW,3.5,-,N/A,Rain,Light Rain,230,2012-11-06 16:50:00
5:20 PM,48.2,44.6,87,30.18,6.2,WSW,4.6,-,N/A,Rain,Light Rain,250,2012-11-06 17:20:00
5:50 PM,48.2,44.6,87,30.18,6.2,WSW,3.5,-,N/A,,Mostly Cloudy,240,2012-11-06 17:50:00
6:20 PM,48.2,44.6,87,30.18,6.2,West,4.6,-,N/A,,Mostly Cloudy,260,2012-11-06 18:20:00
6:50 PM,50.0,42.8,76,30.18,6.2,WSW,4.6,-,N/A,,Mostly Cloudy,250,2012-11-06 18:50:00